Location: Lombard
(41.8800°N, 88.0080°W)
Time: 13:29:58
(UTC-05:00)

A-11 Canister half - Pass Details

Date: 02 February 2023
Orbit: 1512 x 1687 km, 47.2° (Epoch: 20 March)

Event Time Altitude Azimuth Distance (km) Brightness Sun altitude
Rises 10:35:31 0° 224° (SW) 4,861 11.9 27.8°
Reaches altitude 10° 10:38:43 10° 221° (SW) 3,854 11.5 28.0°
Maximum altitude 10:48:20 63° 144° (SE) 1,742 10.4 28.7°
Drops below altitude 10° 10:57:36 10° 66° (ENE) 3,731 11.1 29.3°
Sets 11:00:39 0° 64° (ENE) 4,698 11.5 29.5°
